Location: Oak Glen
(34.0495°N, 116.9470°E)
Time: 16:32:40
(UTC-08:00)

OTV 5 (USA 277) - Pass Details

Date: 13 October 2017
Orbit: 404 x 417 km, 43.0° (Epoch: 07 September)

Event Time Altitude Azimuth Distance (km) Brightness Sun altitude
Rises 03:25:36 0° 268° (W) 2,344 ? -10.0°
Reaches altitude 10° 03:27:53 10° 280° (W) 1,484 ? -10.5°
Maximum altitude 03:30:51 28° 342° (NNW) 805 ? -11.1°
Enters shadow 03:33:42 11° 43° (NE) 1,442 ? -11.7°
